Weather History for Fitchburg, MA

Change the Weather History Date:

Thursday, February 6, 2014

  Actual Average (KORH) Record (KORH)
Temperature  
Mean Temperature 18 °F 25 °F  
Max Temperature 28 °F 33 °F 53 °F (1925)
Min Temperature 7 °F 18 °F -10 °F (1895)
Degree Days  
Heating Degree Days 48 40  
Month to date heating degree days 240  
Since 1 July heating degree days 4013  
Cooling Degree Days 0 0  
Month to date cooling degree days 0  
Year to date cooling degree days 0  
Moisture  
Dew Point 9 °F    
Average Humidity 68    
Maximum Humidity 92    
Minimum Humidity 33    
Precipitation  
Precipitation 0.00 in 0.11 in 2.70 in (1896)
Month to date precipitation 0.68  
Year to date precipitation 4.17  
Sea Level Pressure  
Sea Level Pressure 30.16 in    
Wind  
Wind Speed 3 mph (NW)    
Max Wind Speed 9 mph    
Max Gust Speed -    
Visibility 9 miles    
Events Snow    
T = Trace of Precipitation, MM = Missing Value Source: NWS Daily Summary

Daily Weather History Graph

Daily Weather History Graph

Search for Another Location

Airport:

Trip Planner

Search our weather history database for the weather conditions in past years. The results will help you decide how hot, cold, wet, or windy it might be!

Date:

Astronomy

Feb. 06, 2014 Rise Set
Actual Time 6:55 AM EST 5:07 PM EST
Civil Twilight 6:25 AM EST 5:36 PM EST
Nautical Twilight 5:52 AM EST 6:10 PM EST
Astronomical Twilight 5:19 AM EST 6:43 PM EST
Moon 10:37 AM EST (2/6) 12:08 AM EST (2/6)
Length of Visible Light 11h 10m
Length of Day
10h 11m
Waxing Crescent, 49% of the Moon is Illuminated
Feb 6
Waxing Crescent
Feb 6
First Quarter
Feb 14
Full
Feb 22
Last Quarter
Mar 1
New

Hourly Weather History & Observations

Time (EST) Temp. Windchill Dew Point Humidity Pressure Visibility Wind Dir Wind Speed Gust Speed Precip Events Conditions
12:09 AM 24.1 °F 18.2 °F 19.0 °F 81% 29.96 in 4.0 mi NNW 4.6 mph - 0.00 in Snow Light Snow
12:30 AM 24.1 °F 18.2 °F 19.0 °F 81% 29.97 in 8.0 mi NNW 4.6 mph - 0.00 in Snow Light Snow
12:52 AM 24.1 °F - 19.0 °F 81% 30.00 in 6.0 mi Calm Calm - 0.00 in Snow Light Snow
1:52 AM 18.0 °F - 16.0 °F 92% 30.01 in 10.0 mi Calm Calm - 0.00 in   Overcast
2:52 AM 15.1 °F - 12.0 °F 88% 30.06 in 4.0 mi Calm Calm - N/A   Partly Cloudy
3:20 AM 12.9 °F - 8.1 °F 81% 30.05 in 5.0 mi Calm Calm - N/A   Haze
3:48 AM 14.0 °F 2.0 °F 10.4 °F 86% 30.06 in 8.0 mi NNW 9.2 mph - N/A   Scattered Clouds
3:52 AM 18.0 °F 6.9 °F 12.9 °F 81% 30.08 in 10.0 mi NNW 9.2 mph - N/A   Partly Cloudy
4:52 AM 17.1 °F 8.7 °F 10.0 °F 74% 30.12 in 10.0 mi NW 5.8 mph - N/A   Clear
5:52 AM 17.1 °F 8.7 °F 8.1 °F 68% 30.16 in 10.0 mi NNW 5.8 mph - N/A   Clear
6:52 AM 7.0 °F -3.3 °F 3.0 °F 84% 30.20 in 10.0 mi WNW 5.8 mph - N/A   Clear
7:52 AM 14.0 °F - 7.0 °F 74% 30.23 in 10.0 mi Calm Calm - N/A   Clear
8:52 AM 17.1 °F 5.8 °F 6.1 °F 62% 30.25 in 10.0 mi WNW 9.2 mph - N/A   Clear
9:52 AM 18.0 °F 8.7 °F 6.1 °F 60% 30.27 in 10.0 mi NW 6.9 mph - N/A   Clear
10:52 AM 19.0 °F 11.1 °F 6.1 °F 57% 30.27 in 10.0 mi West 5.8 mph - N/A   Clear
11:52 AM 23.0 °F - 6.1 °F 48% 30.26 in 10.0 mi Calm Calm - N/A   Clear
12:52 PM 25.0 °F - 6.1 °F 45% 30.22 in 10.0 mi Calm Calm - N/A   Clear
1:52 PM 27.0 °F - 6.1 °F 41% 30.21 in 10.0 mi Calm Calm - N/A   Clear
2:52 PM 28.9 °F 25.2 °F 3.0 °F 33% 30.21 in 10.0 mi Variable 3.5 mph - N/A   Clear
3:52 PM 27.0 °F 23.0 °F 3.9 °F 37% 30.22 in 10.0 mi WNW 3.5 mph - N/A   Clear
4:52 PM 25.0 °F 19.3 °F 5.0 °F 43% 30.22 in 10.0 mi WNW 4.6 mph - N/A   Clear
5:52 PM 19.9 °F - 9.0 °F 62% 30.23 in 10.0 mi Calm Calm - N/A   Clear
6:52 PM 12.0 °F - 7.0 °F 80% 30.22 in 10.0 mi Calm Calm - N/A   Clear
7:52 PM 12.9 °F - 8.1 °F 81% 30.23 in 10.0 mi Calm Calm - N/A   Clear
8:52 PM 12.9 °F - 8.1 °F 81% 30.21 in 10.0 mi Calm Calm - N/A   Clear
9:52 PM 10.9 °F - 7.0 °F 84% 30.22 in 10.0 mi Calm Calm - N/A   Clear
10:52 PM 14.0 °F - 3.9 °F 64% 30.21 in 10.0 mi Calm Calm - N/A   Clear
11:52 PM 15.1 °F 9.4 °F 3.9 °F 61% 30.22 in 10.0 mi WNW 3.5 mph - N/A   Clear